This is the latest recevied weather packets stored in our database for station/object CR7BQX-11. If no packets are shown the sender has not sent any weather packets the latest 10 day(s).
| Time | Temp. | Humidity | Pressure | Rain* | Wind** | Luminosity | Snow |
|---|---|---|---|---|---|---|---|
| 1777564726 | 23.33° C | 48% | 1005.3 hPa | - | - | - | - |
| 1777563825 | 23.33° C | 48% | 1005.4 hPa | - | - | - | - |
| 1777562925 | 23.33° C | 47% | 1005.3 hPa | - | - | - | - |
| 1777562025 | 22.78° C | 48% | 1005.5 hPa | - | - | - | - |
| 1777561124 | 22.78° C | 48% | 1005.5 hPa | - | - | - | - |
| 1777560224 | 22.78° C | 48% | 1005.7 hPa | - | - | - | - |
| 1777559324 | 22.78° C | 48% | 1005.6 hPa | - | - | - | - |
| 1777558424 | 22.78° C | 48% | 1005.6 hPa | - | - | - | - |
| 1777557524 | 22.22° C | 51% | 1005.6 hPa | - | - | - | - |
| 1777556626 | 22.78° C | 50% | 1005.5 hPa | - | - | - | - |
| 1777555725 | 22.78° C | 50% | 1005.3 hPa | - | - | - | - |
| 1777554824 | 22.78° C | 50% | 1005.2 hPa | - | - | - | - |
| 1777553923 | 22.78° C | 50% | 1005.1 hPa | - | - | - | - |
| 1777553023 | 22.22° C | 52% | 1005.1 hPa | - | - | - | - |
| 1777552123 | 22.78° C | 49% | 1005 hPa | - | - | - | - |
| 1777551223 | 22.22° C | 48% | 1005 hPa | - | - | - | - |
| 1777550322 | 22.78° C | 49% | 1005 hPa | - | - | - | - |
| 1777549423 | 22.78° C | 47% | 1004.9 hPa | - | - | - | - |
| 1777548522 | 22.78° C | 47% | 1004.9 hPa | - | - | - | - |
| 1777547622 | 23.33° C | 47% | 1004.9 hPa | - | - | - | - |
| 1777546722 | 22.78° C | 47% | 1004.8 hPa | - | - | - | - |
| 1777545821 | 22.78° C | 48% | 1004.8 hPa | - | - | - | - |
| 1777544921 | 22.78° C | 47% | 1004.7 hPa | - | - | - | - |
| 1777544021 | 22.78° C | 47% | 1004.7 hPa | - | - | - | - |
| 1777543126 | 22.78° C | 46% | 1004.6 hPa | - | - | - | - |
* Rain since midnight (hover to see other rain measurements)
** Current wind speed in m/s (hover to see current wind gust speed)